When you browse on this site, cookies collect data to enhance your experience and personalize the content and advertising you see.
Visit our Privacy Policy to learn more. By continuing to use the site, you agree to this use of cookies and data.
  • In Österreich
  • Länderverzeichnis
  • Für 7 Tage
  • Wassertemperatur
  • Satellitenkarten
  • Wetterkarte
  • News
  • Widgets
  • user-avatar
    Anmelden

    Stündliche Wetter La-Plata

    Heute, 21 November, Mittwoch

    Zeit Temperatur Niederschläge Wind Luftdruck Luftfeuchtigkeit
    00:00 +22°C° 0 mm 5 m/S 757 mmHg 64%
    01:00 +22°C° 0 mm 4 m/S 757 mmHg 65%
    02:00 +21°C° 0 mm 4 m/S 757 mmHg 66%
    03:00 +21°C° 0 mm 4 m/S 758 mmHg 68%
    04:00 +20°C° 0 mm 4 m/S 758 mmHg 70%
    05:00 +20°C° 0 mm 5 m/S 758 mmHg 71%
    06:00 +22°C° 0 mm 5 m/S 758 mmHg 66%
    07:00 +25°C° 0 mm 5 m/S 758 mmHg 62%
    08:00 +27°C° 0 mm 6 m/S 758 mmHg 57%
    09:00 +28°C° 0 mm 5 m/S 758 mmHg 52%
    10:00 +30°C° 0 mm 5 m/S 758 mmHg 48%
    11:00 +32°C° 0 mm 5 m/S 757 mmHg 43%
    12:00 +33°C° 0 mm 5 m/S 757 mmHg 42%
    13:00 +34°C° 0 mm 5 m/S 756 mmHg 40%
    14:00 +34°C° 0 mm 5 m/S 756 mmHg 39%
    15:00 +34°C° 0 mm 5 m/S 755 mmHg 44%
    16:00 +33°C° 0 mm 5 m/S 755 mmHg 48%
    17:00 +32°C° 0 mm 5 m/S 754 mmHg 53%
    18:00 +30°C° 0 mm 5 m/S 754 mmHg 55%
    19:00 +28°C° 0 mm 5 m/S 754 mmHg 58%
    20:00 +27°C° 0 mm 5 m/S 754 mmHg 61%
    21:00 +27°C° 0 mm 5 m/S 755 mmHg 62%
    22:00 +26°C° 0 mm 5 m/S 755 mmHg 63%
    23:00 +26°C° 0 mm 5 m/S 755 mmHg 64%

    Morgen, 22 November, Donnerstag

    Zeit Temperatur Niederschläge Wind Luftdruck Luftfeuchtigkeit
    00:00 +26°C° 0 mm 5 m/S 755 mmHg 65%
    01:00 +25°C° 0 mm 5 m/S 754 mmHg 66%
    02:00 +25°C° 0 mm 5 m/S 754 mmHg 68%
    03:00 +25°C° 0 mm 5 m/S 754 mmHg 70%
    04:00 +23°C° 0 mm 5 m/S 754 mmHg 72%
    05:00 +23°C° 0 mm 4 m/S 755 mmHg 74%
    06:00 +25°C° 0.1 mm 4 m/S 755 mmHg 75%
    07:00 +26°C° 0.1 mm 4 m/S 756 mmHg 75%
    08:00 +26°C° 0.1 mm 4 m/S 757 mmHg 75%
    09:00 +27°C° 0.3 mm 3 m/S 757 mmHg 74%
    10:00 +27°C° 0.3 mm 3 m/S 757 mmHg 72%
    11:00 +28°C° 0.3 mm 3 m/S 757 mmHg 71%
    12:00 +27°C° 0 mm 3 m/S 757 mmHg 71%
    13:00 +27°C° 0 mm 4 m/S 757 mmHg 71%
    14:00 +27°C° 0 mm 5 m/S 757 mmHg 71%
    15:00 +24°C° 0.1 mm 6 m/S 757 mmHg 71%
    16:00 +23°C° 0.1 mm 8 m/S 757 mmHg 71%
    17:00 +21°C° 0.1 mm 9 m/S 758 mmHg 72%
    18:00 +19°C° 0.2 mm 9 m/S 759 mmHg 72%
    19:00 +18°C° 0.2 mm 9 m/S 759 mmHg 73%
    20:00 +17°C° 0.2 mm 9 m/S 760 mmHg 73%
    21:00 +16°C° 0 mm 8 m/S 761 mmHg 72%
    22:00 +15°C° 0 mm 8 m/S 761 mmHg 72%
    23:00 +13°C° 0 mm 8 m/S 761 mmHg 71%

    übermorgen, 23 November, Freitag

    Zeit Temperatur Niederschläge Wind Luftdruck Luftfeuchtigkeit
    00:00 +13°C° 0.1 mm 8 m/S 761 mmHg 73%
    01:00 +14°C° 0.1 mm 7 m/S 761 mmHg 74%
    02:00 +12°C° 0.1 mm 7 m/S 761 mmHg 75%
    03:00 +14°C° 0.1 mm 7 m/S 761 mmHg 76%
    04:00 +14°C° 0.1 mm 7 m/S 761 mmHg 77%
    05:00 +14°C° 0.1 mm 7 m/S 761 mmHg 78%
    06:00 +15°C° 0 mm 7 m/S 761 mmHg 77%
    07:00 +16°C° 0 mm 7 m/S 761 mmHg 77%
    08:00 +17°C° 0 mm 7 m/S 761 mmHg 76%
    09:00 +17°C° 0 mm 7 m/S 761 mmHg 76%
    10:00 +18°C° 0 mm 7 m/S 761 mmHg 75%
    11:00 +18°C° 0 mm 7 m/S 761 mmHg 75%
    12:00 +20°C° 0 mm 7 m/S 761 mmHg 74%
    13:00 +20°C° 0 mm 8 m/S 760 mmHg 72%
    14:00 +21°C° 0 mm 8 m/S 760 mmHg 71%
    15:00 +20°C° 0 mm 8 m/S 760 mmHg 72%
    16:00 +20°C° 0 mm 8 m/S 760 mmHg 73%
    17:00 +18°C° 0 mm 8 m/S 759 mmHg 75%
    18:00 +17°C° 0 mm 8 m/S 760 mmHg 77%
    19:00 +17°C° 0 mm 8 m/S 760 mmHg 79%
    20:00 +16°C° 0 mm 7 m/S 760 mmHg 81%
    21:00 +16°C° 0 mm 7 m/S 760 mmHg 81%
    22:00 +16°C° 0 mm 6 m/S 760 mmHg 82%
    23:00 +15°C° 0 mm 6 m/S 761 mmHg 83%

    24 November, Samstag

    Zeit Temperatur Niederschläge Wind Luftdruck Luftfeuchtigkeit
    00:00 +16°C° 0 mm 6 m/S 760 mmHg 82%
    01:00 +16°C° 0 mm 5 m/S 760 mmHg 82%
    02:00 +16°C° 0 mm 5 m/S 759 mmHg 81%
    03:00 +16°C° 0 mm 5 m/S 760 mmHg 83%
    04:00 +15°C° 0 mm 5 m/S 760 mmHg 84%
    05:00 +15°C° 0 mm 5 m/S 760 mmHg 86%
    06:00 +16°C° 0 mm 5 m/S 760 mmHg 82%
    07:00 +19°C° 0 mm 6 m/S 760 mmHg 79%
    08:00 +20°C° 0 mm 6 m/S 761 mmHg 75%
    09:00 +21°C° 0 mm 6 m/S 761 mmHg 71%
    10:00 +22°C° 0 mm 6 m/S 761 mmHg 67%
    11:00 +23°C° 0 mm 6 m/S 761 mmHg 62%
    12:00 +24°C° 0 mm 6 m/S 760 mmHg 61%
    13:00 +24°C° 0 mm 6 m/S 760 mmHg 61%
    14:00 +24°C° 0 mm 6 m/S 759 mmHg 60%
    15:00 +23°C° 0 mm 6 m/S 759 mmHg 62%
    16:00 +22°C° 0 mm 6 m/S 759 mmHg 64%
    17:00 +21°C° 0 mm 7 m/S 759 mmHg 67%
    18:00 +20°C° 0 mm 6 m/S 760 mmHg 72%
    19:00 +17°C° 0 mm 6 m/S 760 mmHg 78%
    20:00 +15°C° 0 mm 5 m/S 761 mmHg 84%
    21:00 +15°C° 0 mm 5 m/S 761 mmHg 85%
    22:00 +14°C° 0 mm 5 m/S 761 mmHg 87%
    23:00 +14°C° 0 mm 5 m/S 761 mmHg 88%

    25 November, Sonntag

    Zeit Temperatur Niederschläge Wind Luftdruck Luftfeuchtigkeit
    00:00 +13°C° 0 mm 4 m/S 761 mmHg 88%
    01:00 +13°C° 0 mm 4 m/S 761 mmHg 89%
    02:00 +13°C° 0 mm 4 m/S 761 mmHg 89%
    03:00 +13°C° 0 mm 3 m/S 761 mmHg 89%
    04:00 +13°C° 0 mm 3 m/S 761 mmHg 90%
    05:00 +13°C° 0 mm 3 m/S 761 mmHg 91%
    06:00 +16°C° 0 mm 3 m/S 762 mmHg 83%
    07:00 +18°C° 0 mm 4 m/S 762 mmHg 76%
    08:00 +21°C° 0 mm 4 m/S 762 mmHg 68%
    09:00 +22°C° 0 mm 4 m/S 762 mmHg 62%
    10:00 +23°C° 0 mm 4 m/S 762 mmHg 57%
    11:00 +26°C° 0 mm 5 m/S 762 mmHg 51%
    12:00 +26°C° 0 mm 5 m/S 761 mmHg 50%
    13:00 +26°C° 0 mm 6 m/S 761 mmHg 49%
    14:00 +26°C° 0 mm 6 m/S 761 mmHg 48%
    15:00 +24°C° 0 mm 6 m/S 761 mmHg 51%
    16:00 +23°C° 0 mm 6 m/S 761 mmHg 54%
    17:00 +23°C° 0 mm 6 m/S 761 mmHg 56%
    18:00 +21°C° 0 mm 6 m/S 761 mmHg 63%
    19:00 +19°C° 0 mm 6 m/S 761 mmHg 70%
    20:00 +16°C° 0 mm 6 m/S 761 mmHg 77%
    21:00 +16°C° 0 mm 6 m/S 762 mmHg 79%
    22:00 +16°C° 0 mm 6 m/S 762 mmHg 81%
    23:00 +16°C° 0 mm 5 m/S 762 mmHg 82%

    26 November, Montag

    Zeit Temperatur Niederschläge Wind Luftdruck Luftfeuchtigkeit
    00:00 +15°C° 0 mm 5 m/S 762 mmHg 83%
    01:00 +15°C° 0 mm 5 m/S 762 mmHg 83%
    02:00 +15°C° 0 mm 4 m/S 762 mmHg 83%
    03:00 +15°C° 0 mm 4 m/S 762 mmHg 82%
    04:00 +15°C° 0 mm 4 m/S 762 mmHg 81%
    05:00 +15°C° 0 mm 4 m/S 762 mmHg 80%
    06:00 +17°C° 0 mm 4 m/S 763 mmHg 75%
    07:00 +18°C° 0 mm 4 m/S 764 mmHg 70%
    08:00 +20°C° 0 mm 4 m/S 764 mmHg 64%
    09:00 +21°C° 0 mm 4 m/S 764 mmHg 59%
    10:00 +22°C° 0 mm 4 m/S 764 mmHg 53%
    11:00 +25°C° 0 mm 4 m/S 763 mmHg 47%
    12:00 +25°C° 0 mm 5 m/S 763 mmHg 47%
    13:00 +25°C° 0 mm 5 m/S 763 mmHg 46%
    14:00 +26°C° 0 mm 5 m/S 762 mmHg 46%
    15:00 +24°C° 0 mm 6 m/S 762 mmHg 50%
    16:00 +24°C° 0 mm 6 m/S 762 mmHg 54%
    17:00 +23°C° 0 mm 6 m/S 762 mmHg 58%
    18:00 +22°C° 0 mm 6 m/S 763 mmHg 64%
    19:00 +20°C° 0 mm 6 m/S 763 mmHg 70%
    20:00 +19°C° 0 mm 6 m/S 763 mmHg 76%
    21:00 +17°C° 0 mm 6 m/S 763 mmHg 76%
    22:00 +17°C° 0 mm 6 m/S 763 mmHg 76%
    23:00 +17°C° 0 mm 5 m/S 763 mmHg 76%
    Mehr zeigen